{"data":{"norad_id":62374,"intl_designator":"2024-246A","name":"TJS-12","alt_names":[],"object_type":"PAYLOAD","status":"ACTIVE","operator":null,"country":"PRC","launch_date":"2024-12-20","launch_site_code":"XICLF","launch_vehicle":null,"mission":null,"orbit_class":"UNKNOWN","rcs_meters":null,"size_class":null,"mass_kg":null,"dimensions":null,"purposes":["comms"],"wikipedia_slug":null,"has_3d_model":false,"image_url":null,"decayed_at":null,"tle_current":{"epoch":"2026-09-19T17:40:02.313696Z","epoch_age_seconds":84243,"freshness":"FRESH","line1":"1 62374U 24246A   26262.73613789 -.00000237  00000+0  00000+0 0  9993","line2":"2 62374   0.4864 312.6129 0001254 140.9448 316.5372  1.00267961  6513","mean_motion":1.00267961,"eccentricity":0.0001254,"inclination_deg":0.4864,"raan_deg":312.6129,"arg_perigee_deg":140.9448,"mean_anomaly_deg":316.5372,"bstar":0,"rev_number":651,"period_min":1436.1516736139,"perigee_km":35782.379409454,"apogee_km":35792.954593097,"semimajor_km":42165.804001276,"source":"CELESTRAK","updated_at":"2026-09-20T09:00:35.340432Z"}}}